Location: Albany
(35.0170°S, 117.8920°E)
Time: 09:10:57
(UTC+08:00)

S-56A Canister/Altair - Pass Details

Date: 27 January 2021
Orbit: 632 x 2501 km, 38.9° (Epoch: 25 February)

Event Time Altitude Azimuth Distance (km) Brightness Sun altitude
Rises 16:13:33 0° 261° (W) 5,965 13.0 36.3°
Reaches altitude 10° 16:17:18 10° 259° (WSW) 5,072 13.0 35.5°
Maximum altitude 16:32:39 79° 171° (S) 2,495 10.6 32.4°
Drops below altitude 10° 16:46:12 10° 84° (E) 4,553 11.0 29.6°
Sets 16:49:23 0° 82° (E) 5,350 11.3 28.9°
